Showing default

O3B FM7, 40080

Orbit data source: Space-Track

O3B FM7, 40080 is a payload satellite owned by O3B (JE) that was launched on Thu, 10 Jul 2014 UTC via a SOYUZ-ST-B launch vehicle from the French Guiana (FRGUI). Payload-class satellites include a variety of spacecraft equipped with specific instruments for various scientific and technological missions. These include communications satellites like Starlink; space stations such as the ISS; scientific satellites like the Hubble; Earth observation satellites from companies like Planet Labs, Umbra, and HawkEye 360; GPS; miniature CubeSats for education and research; and military/defense satellites.

Loading next visibility...
Identifier
40080, 2014-038B
Orbit
Active
Country
Flag of UnknownUnknown / O3B
Related business
Manufacturer
Thales Alenia
Mission
Operational Commercial Communications
Bus & Motor
PRISMA?, LS-400 AOCS?
Mass
700 kg wet, ~500 kg dry
Launch date (UTC)
2014-07-10 (11 years ago)
Launch vehicle
SOYUZ-ST-B
Launch site
French Guiana (FRGUI)
Object type
Payload
Rocket body
Debris
Shape & HBR
Trap Box + 2 Pan, 6.0 m
Radar Cross Section
21.980 m², Large (>1 m²)

Expand to show TLE details & history
Last TLE update: 11 hours ago

TLE from 11 hours ago
0 O3B FM7
1 40080U 14038B   25258.00250108 -.00000026  00000-0  00000-0 0  9995
2 40080   0.0598   4.5067 0004032 189.5505 165.9323  5.00115468204117
Epoch: 2025-09-15T00:03Z
TLE epoch observation values (Epoch: 2025-09-15T00:03:36.093Z)
Latitude
-0.00623°
Longitude
4.88621°
Altitude
8,070.025 km
Speed
5.252 km/s
True Right ascension
00h 00m 00s
True Declination
0° 00' 22"
Sunlit
Object was in full shadow at epoch
Visualization orbit readout
Latitude
Unknown
Longitude
Unknown
Altitude
Unknown
Speed
Unknown
Apparent Right ascension
Unknown
Apparent Declination
Unknown
Sunlit
N/A
Visualization observer readout
Local Sidereal Time
04:08:36
Azimuth
Unknown
Elevation
Unknown
Doppler factor
Unknown
Orbital elements
Apogee altitude
8,074.774 km
Perigee altitude
8,063.124 km
Semi-major axis
14,447.086 km
Eccentricity
0.0004
Inclination
0.0598°
RAAN
4.5067°
Arg. of periapsis
189.5505°
True anomaly
165.94353°
Mean anomaly
165.9323°
Eccentric anomaly
165.93791°
Mean motion
1.24989 °/min
Orbital period
288.02 mins
BSTAR
0
Loading maneuver chart data...
Computing Atmospheric mass density...
Loading historical data...
Loading historical data...
Loading historical data...
Loading historical data...
Loading historical data...
Loading historical data...
Loading historical data...
Other satellites on launch #38 in the year 2014 (2014-07-10 UTC)

Documentation

Showing up to 5 results
|